Regional Weather Roundup
Issued by NWS

Home | Current Version | Previous Version | Text Only | Print | Product List | Glossary On
Versions: 1 2 3 4 5 6 7 8 9 10 11 12 13 14 15 16 17 18 19 20 21 22 23 24 25 26 27 28 29 30 31 32 33 34 35 36 37 38 39 40 41 42 43 44 45 46 47 48 49 50
000
ASUS43 KDTX 270701
RWRMI
MICHIGAN HOURLY REGIONAL WEATHER ROUNDUP
NATIONAL WEATHER SERVICE DETROIT/PONTIAC MI
300 AM EDT MON MAR 27 2017

NOTE: "FAIR" INDICATES FEW OR NO CLOUDS BELOW 12,000 FEET WITH NO
SIGNIFICANT WEATHER AND/OR OBSTRUCTION TO VISIBILITY.

MIZ047>049-052>055-059>063-066>070-074>076-081>083-270800-
SOUTHEAST LOWER MICHIGAN

CITY           SKY/WX    TMP DP  RH WIND       PRES   REMARKS
ADRIAN         CLOUDY    51  51 100 W6        29.87F FOG
ALMA           FOG       45  45 100 CALM      29.83F VSB 1/2
ANN ARBOR      LGT RAIN  50  50 100 SW5       29.85F VSB 3/4
BAD AXE        FOG       47  47 100 S5        29.84S VSB 3/4
CARO           CLOUDY    50  50 100 S5        29.83F FOG
DETROIT CITY   CLOUDY    48  48 100 S5        29.86F FOG
DETROIT        CLOUDY    49  49 100 S5        29.87F FOG
FLINT          CLOUDY    50  49  96 SW6       29.84F FOG
GROSSE ILE     FOG       45  45  99 CALM      29.86S VSB 3/4
HILLSDALE      MOCLDY    50  50 100 W7        29.86F
HOWELL         CLOUDY    51  49  93 SW3       29.85S FOG

CITY           SKY/WX    TMP DP  RH WIND       PRES   REMARKS
JACKSON          N/A     51  50  96 W7        29.86S
LAMBERTVILLE   CLOUDY    54  52  92 SW7       29.87S
LANSING        CLOUDY    53  50  89 SW7       29.85S
LAPEER         LGT RAIN  48  48  99 CALM      29.85S
MASON          CLOUDY    52  51  98 CALM      29.85F FOG
MONROE         CLOUDY    48  48 100 CALM      29.86S FOG
MT. CLEMENS    FOG       44  44 100 CALM      29.84F VSB 1
PONTIAC        CLOUDY    50  48  93 SW6       29.84F FOG
PORT HOPE        N/A     48  48 100 CALM      29.82S
PORT HURON     DRIZZLE   46  46 100 S3        29.86S
TRI CITIES     FOG       45  45 100 S3        29.83F VSB 1/4
MIDLAND        SNOW      43  42  97 CALM      29.82F VSB 1/4
TROY           CLOUDY    49  48  95 SW3       29.87S FOG
SAGINAW HB     CLOUDY    50  46  87 S5        29.82F FOG
$$
MIZ043>046-050>051-056>058-064>065-071>073-077>080-270800-
SOUTHWEST LOWER MICHIGAN

CITY           SKY/WX    TMP DP  RH WIND       PRES   REMARKS
BATTLE CREEK   CLOUDY    52  52 100 W7        29.86F FOG
BENTON HARBOR  CLOUDY    50  47  89 W12       29.87S
BIG RAPIDS     FOG       43  42  95 CALM      29.81F VSB 1/4
COLDWATER      CLOUDY    52  52  99 SW7       29.86F
FREMONT        CLOUDY    45  45 100 W5        29.83S
HOLLAND        CLOUDY    43  41  93 W5        29.86F FOG
GRAND RAPIDS   CLOUDY    50  50 100 SW13      29.84S FOG
IONIA          CLOUDY    51  50  96 SW9       29.83F FOG
KALAMAZOO      CLOUDY    52  49  89 SW8       29.86F FOG
LUDINGTON      LGT RAIN  37  37 100 NW7       29.84S WCI  32
MARSHALL       CLOUDY    53  52  98 SW6       29.85F
MOUNT PLEASANT FOG       42  42  97 CALM      29.82F VSB 1/4
MUSKEGON       CLOUDY    40  39  97 NW6       29.86R
SOUTH HAVEN    FOG       43  43  99 W3        29.87S VSB 1/4
$$
MIZ016>042-270800-
NORTHERN LOWER MICHIGAN

CITY           SKY/WX    TMP DP  RH WIND       PRES   REMARKS
ALPENA         CLOUDY    38  38 100 CALM      29.82S
BEAVER ISLAND  LGT RAIN  33  33 100 CALM      29.83F
BELLAIRE       FOG       40  39  96 CALM      29.81F VSB 3/4
CADILLAC       FOG       43  42  97 CALM      29.79F VSB 1/4
CHARLEVOIX     FOG       40  40 100 NW3       29.84F VSB 3/4
FRANKFORT      CLOUDY    38  37  94 CALM      29.83S FOG
GAYLORD        FOG       42  39  89 W5        29.80S VSB 3/4
GRAYLING       CLOUDY    41  41 100 SW5       29.81F FOG
HARBOR SPRINGS FOG       36  36 100 CALM      29.81F VSB 3/4
HOUGHTON LAKE  FOG       40  39  97 CALM      29.81F VSB 1/2
MANISTEE       LGT RAIN  38  37  97 NW7       29.83S FOG     WCI  33
OSCODA         FOG       39  38  97 CALM      29.82S VSB 1/2
PELLSTON       FOG       35  34  96 CALM      29.82F VSB 1
ROGERS CITY    CLOUDY    38  37  96 CALM        N/A  FOG
TRAVERSE CITY  FOG       43  41  93 CALM      29.80F VSB 1
$$
MIZ007>008-015-270800-
EASTERN UPPER MICHIGAN

CITY           SKY/WX    TMP DP  RH WIND       PRES   REMARKS
KINROSS        MIX PCPN  32  32 100 NE3       29.83F
MACKINAC ISLAN FOG       33  33 100 NE6       29.82S VSB 1/2 WCI  27
NEWBERRY       CLOUDY    32  31  97 CALM      29.83F FOG
S. S. MARIE    LGT RAIN  35  33  92 CALM      29.83F FOG
MUNISING         N/A     34  34 100 NW9       29.86R WCI  27
$$
MIZ004>006-011>014-085-270800-
CENTRAL UPPER MICHIGAN

CITY           SKY/WX    TMP DP  RH WIND       PRES   REMARKS
MANISTIQUE     CLOUDY    34  32  93 N6        29.84R WCI  29
ESCANABA       CLOUDY    35  35 100 NW3       29.86F
MENOMINEE        N/A    N/A N/A N/A MISG        N/A
SAWYER-GWINN   FLURRIES  32  32  99 N5        29.85S WCI  27
$$
MIZ001>003-009>011-084-270800-
WESTERN UPPER MICHIGAN

CITY           SKY/WX    TMP DP  RH WIND       PRES   REMARKS
IRON MOUNTAIN  CLOUDY    35  32  88 NW7       29.85S WCI  29
HOUGHTON       FOG       33  31  92 N6        29.88R VSB 1   WCI  28
COPPER HARBOR    N/A     34  33  96 NE6       29.89R WCI  29
IRONWOOD       FOG       32  31  96 NW5       29.91F VSB 1/4 WCI  27
$$

ABBREVIATIONS USED IN REMARKS
   TC - TEMPERATURE IN CELSIUS
  WCI - WIND CHILL INDEX
   HX - HEAT INDEX
  VSB - VISIBILITY





USA.gov is the U.S. government's official web portal to all federal, state and local government web resources and services.